Weather in Novonikolskoye

Russia / Lipetsk Oblast     53°12′17″N   39°08′46″E
temp.,
°C
wind,
m/s
gust,
m/s
humid.,
%
clouds,
%
prec.,
mm/h
press.,
hPa
HPBL,
m
18 may, tue
tue1800:00+19se5166410 0.0 1009332
03:00+16ese51466100 0.0 1009271
06:00+15ese51272100 0.0 1009238
09:00+21se612540 0.0 1009420
12:00+25ese69425 0.0 1008744
15:00+26ese713475 0.0 10071785
18:00+24se713615 0.0 1006750
21:00+19sse347760 0.1 100746
19 may, wed
wed1900:00+16sw369376 0.5 1007141
03:00+15e2288100 0.6 100718
06:00+15sse499279 0.1 1008407
09:00+18s35772 0.1 1008551
12:00+22se46588 0.0 10081527
15:00+22se465868 0.0 10071346
18:00+20se3675100 0.3 1006161
21:00+17ssw61082100 0.6 1007379
20 may, thu
thu2000:00+13se228876 0.0 100737
03:00+12sse499723 0.0 1007279
06:00+12se489356 0.0 1007310
09:00+16sse797333 0.1 10071140
12:00+17sse8106839 0.8 10081394
15:00+18s7106649 1.8 10081414
18:00+17s57755 1.0 1008888
21:00+13ssw411911 1.2 1009389
21 may, fri
fri2100:00+13ssw41084100 0.0 1009535
03:00+12ssw7129149 0.1 1009633
06:00+10sw71186100 0.3 10111027
09:00+12sw81172100 0.3 10131192
12:00+14wsw8126794 0.4 10141533
15:00+16wsw71366100 0.4 10151745
18:00+15wnw5773100 0.1 10171031
21:00+12nnw2276100 0.1 101912
22 may, sat
sat2200:00+11ne2275100 0.0 101917
03:00+11e3686100 0.7 1019158
06:00+10ene5994100 7.1 1020360
09:00+12ene71088100 7.1 1020496
12:00+16ene81079100 0.0 1018947
15:00+17ene6880100 0.1 1017691
18:00+17ne71184100 0.0 1016506
21:00+14ne61192100 0.0 1015328